Location: Hemaruka
(51.7801°N, 111.0917°W)
Time: 09:02:07
(UTC+00:00)

NOAA 15 - Pass Details

Date: 11 December 2023
Orbit: 797 x 810 km, 98.6° (Epoch: 02 March)

Event Time Altitude Azimuth Distance (km) Brightness Sun altitude
Rises 01:44:49 0° 156° (SSE) 3,315 7.6 -22.0°
Reaches altitude 10° 01:47:09 10° 154° (SSE) 2,386 6.9 -22.4°
Maximum altitude 01:52:25 72° 71° (ENE) 850 4.4 -23.2°
Drops below altitude 10° 01:57:41 10° 348° (NNW) 2,395 7.1 -24.0°
Sets 02:00:02 0° 347° (NNW) 3,328 7.9 -24.3°
